CDT,Max TemperatureF,Mean TemperatureF,Min TemperatureF,Max Dew PointF,MeanDew PointF,Min DewpointF,Max Humidity, Mean Humidity, Min Humidity, Max Sea Level PressureIn, Mean Sea Level PressureIn, Min Sea Level PressureIn, Max VisibilityMiles, Mean VisibilityMiles, Min VisibilityMiles, Max Wind SpeedMPH, Mean Wind SpeedMPH, Max Gust SpeedMPH,PrecipitationIn, CloudCover, Events, WindDirDegrees
2013-6-1,93,84,75,75,73,70,91,73,46,29.86,29.79,29.74,10,10,10,16,10,22,0.00,4,,148
2013-6-2,86,76,66,75,68,60,100,79,43,30.01,29.93,29.86,10,9,1,16,7,30,0.17,4,Rain-Thunderstorm,70
2013-6-3,89,78,66,70,66,63,100,71,43,29.98,29.89,29.80,10,10,9,10,2,,0.00,1,,121
2013-6-4,90,79,68,71,68,64,100,76,45,29.90,29.84,29.76,10,8,3,12,5,20,0.00,1,,148
2013-6-5,91,81,71,72,69,62,96,76,39,29.86,29.82,29.70,10,10,10,13,6,21,0.00,3,,124
2013-6-6,91,80,70,72,68,63,100,72,42,29.89,29.82,29.73,10,10,9,17,3,26,0.00,3,,80
2013-6-7,78,72,66,70,66,62,100,81,60,30.01,29.94,29.85,10,8,0,14,8,22,0.72,4,Fog-Rain-Thunderstorm,23
2013-6-8,89,76,64,72,68,64,100,75,52,29.84,29.80,29.76,10,9,5,17,7,,0.00,2,,137
2013-6-9,89,81,73,75,73,70,100,82,57,29.91,29.85,29.81,10,10,10,10,3,,0.00,4,Rain-Thunderstorm,119
2013-6-10,93,81,71,74,70,66,97,76,42,29.98,29.93,29.86,10,10,7,10,2,20,0.00,3,,119
2013-6-11,91,82,73,75,72,69,100,85,50,30.03,29.98,29.94,10,10,2,9,4,,0.00,3,Rain-Thunderstorm,139
2013-6-12,91,82,73,76,74,71,100,89,55,30.05,29.99,29.92,10,7,1,15,4,28,1.20,5,Rain-Thunderstorm,127
2013-6-13,84,78,71,78,74,70,100,93,72,30.05,29.99,29.92,10,8,1,15,5,25,0.68,6,Rain,113
2013-6-14,84,78,73,76,74,72,100,91,67,30.00,29.93,29.87,10,9,1,12,3,,0.00,5,Rain,108
2013-6-15,90,82,75,77,74,69,100,84,53,29.99,29.93,29.84,10,8,3,10,3,,0.01,4,,146
2013-6-16,91,82,73,74,73,69,100,80,47,30.01,29.93,29.86,10,9,6,13,7,17,0.00,3,,149
2013-6-17,93,83,75,75,72,67,94,75,45,29.97,29.90,29.81,10,9,7,13,6,,0.00,4,,157
2013-6-18,93,83,75,74,72,68,94,75,47,29.99,29.92,29.83,10,9,7,10,3,,0.00,3,,153
2013-6-19,93,84,75,74,71,65,96,74,39,29.97,29.91,29.85,10,9,5,13,6,21,0.00,3,,147
2013-6-20,93,82,73,74,71,66,94,71,44,30.05,29.96,29.90,10,9,8,16,7,24,0.00,4,,151
2013-6-21,93,84,75,75,71,60,100,76,36,30.08,30.01,29.92,10,8,5,16,8,23,0.00,5,,152
2013-6-22,93,84,75,74,70,62,96,72,36,30.04,29.96,29.85,10,9,7,17,9,24,0.00,4,,152
2013-6-23,93,83,75,74,70,64,96,71,39,29.98,29.92,29.84,10,9,7,16,8,24,0.00,2,,144
2013-6-24,95,83,73,74,71,67,100,73,41,30.02,29.94,29.85,10,9,6,18,10,28,0.00,4,,143
2013-6-25,96,86,75,73,70,62,94,66,33,29.98,29.91,29.82,10,9,7,17,11,26,0.00,3,,150
2013-6-26,97,86,75,74,71,64,94,67,34,29.97,29.90,29.82,10,9,7,16,10,22,0.00,3,,153
2013-6-27,98,85,73,72,66,56,93,59,25,30.01,29.93,29.86,10,10,9,10,5,,0.00,1,,146
2013-6-28,100,86,73,74,67,56,100,65,24,30.00,29.90,29.78,10,9,5,8,4,,0.00,2,,193
2013-6-29,106,89,73,71,63,54,90,47,19,29.85,29.77,29.68,10,10,10,10,3,,0.00,0,,70
2013-6-30,89,80,71,70,67,59,94,70,36,30.02,29.87,29.75,10,9,2,17,7,31,0.23,2,Rain-Thunderstorm,13